Year,Month,Day,Hour,Minute,Value (Times are PST for temperature in C)
2021,06,26,00,00,20.90
2021,06,26,00,01,20.90
2021,06,26,00,02,20.90
2021,06,26,00,03,20.90
2021,06,26,00,04,20.90
2021,06,26,00,05,20.90
2021,06,26,00,06,20.90
2021,06,26,00,07,20.90
2021,06,26,00,08,20.90
2021,06,26,00,09,20.80
2021,06,26,00,10,20.80
2021,06,26,00,11,20.80
2021,06,26,00,12,20.70
2021,06,26,00,13,20.70
2021,06,26,00,14,20.60
2021,06,26,00,15,20.60
2021,06,26,00,16,20.60
2021,06,26,00,17,20.50
2021,06,26,00,18,20.50
2021,06,26,00,19,20.50
2021,06,26,00,20,20.50
2021,06,26,00,21,20.50
2021,06,26,00,22,20.50
2021,06,26,00,23,20.50
2021,06,26,00,24,20.50
2021,06,26,00,25,20.50
2021,06,26,00,26,20.60
2021,06,26,00,27,20.60
2021,06,26,00,28,20.60
2021,06,26,00,29,20.60
2021,06,26,00,30,20.70
2021,06,26,00,31,20.70
2021,06,26,00,32,20.70
2021,06,26,00,33,20.70
2021,06,26,00,34,20.70
2021,06,26,00,35,20.70
2021,06,26,00,36,20.70
2021,06,26,00,37,20.70
2021,06,26,00,38,20.70
2021,06,26,00,39,20.70
2021,06,26,00,40,20.60
2021,06,26,00,41,20.60
2021,06,26,00,42,20.50
2021,06,26,00,43,20.50
2021,06,26,00,44,20.50
2021,06,26,00,45,20.40
2021,06,26,00,46,20.40
2021,06,26,00,47,20.40
2021,06,26,00,48,20.40
2021,06,26,00,49,20.30
2021,06,26,00,50,20.30
2021,06,26,00,51,20.30
2021,06,26,00,52,20.30
2021,06,26,00,53,20.40
2021,06,26,00,54,20.40
2021,06,26,00,55,20.40
2021,06,26,00,56,20.50
2021,06,26,00,57,20.50
2021,06,26,00,58,20.60
2021,06,26,00,59,20.60
2021,06,26,01,00,20.70
2021,06,26,01,01,20.70
2021,06,26,01,02,20.80
2021,06,26,01,03,20.80
2021,06,26,01,04,20.90
2021,06,26,01,05,20.90
2021,06,26,01,06,21.00
2021,06,26,01,07,21.00
2021,06,26,01,08,21.00
2021,06,26,01,09,21.00
2021,06,26,01,10,21.00
2021,06,26,01,11,21.00
2021,06,26,01,12,21.00
2021,06,26,01,13,20.90
2021,06,26,01,14,20.90
2021,06,26,01,15,20.80
2021,06,26,01,16,20.70
2021,06,26,01,17,20.70
2021,06,26,01,18,20.60
2021,06,26,01,19,20.50
2021,06,26,01,20,20.50
2021,06,26,01,21,20.40
2021,06,26,01,22,20.30
2021,06,26,01,23,20.30
2021,06,26,01,24,20.20
2021,06,26,01,25,20.20
2021,06,26,01,26,20.20
2021,06,26,01,27,20.20
2021,06,26,01,28,20.20
2021,06,26,01,29,20.20
2021,06,26,01,30,20.20
2021,06,26,01,31,20.20
2021,06,26,01,32,20.20
2021,06,26,01,33,20.20
2021,06,26,01,34,20.30
2021,06,26,01,35,20.30
2021,06,26,01,36,20.30
2021,06,26,01,37,20.30
2021,06,26,01,38,20.40
2021,06,26,01,39,20.40
2021,06,26,01,40,20.40
2021,06,26,01,41,20.40
2021,06,26,01,42,20.40
2021,06,26,01,43,20.40
2021,06,26,01,44,20.40
2021,06,26,01,45,20.40
2021,06,26,01,46,20.40
2021,06,26,01,47,20.50
2021,06,26,01,48,20.50
2021,06,26,01,49,20.60
2021,06,26,01,50,20.70
2021,06,26,01,51,20.70
2021,06,26,01,52,20.80
2021,06,26,01,53,20.90
2021,06,26,01,54,20.90
2021,06,26,01,55,21.00
2021,06,26,01,56,21.00
2021,06,26,01,57,21.10
2021,06,26,01,58,21.10
2021,06,26,01,59,21.10
2021,06,26,02,00,21.10
2021,06,26,02,01,21.10
2021,06,26,02,02,21.10
2021,06,26,02,03,21.10
2021,06,26,02,04,21.10
2021,06,26,02,05,21.10
2021,06,26,02,06,21.10
2021,06,26,02,07,21.10
2021,06,26,02,08,21.10
2021,06,26,02,09,21.10
2021,06,26,02,10,21.10
2021,06,26,02,11,21.10
2021,06,26,02,12,21.10
2021,06,26,02,13,21.10
2021,06,26,02,14,21.10
2021,06,26,02,15,21.10
2021,06,26,02,16,21.10
2021,06,26,02,17,21.10
2021,06,26,02,18,21.10
2021,06,26,02,19,21.10
2021,06,26,02,20,21.10
2021,06,26,02,21,21.10
2021,06,26,02,22,21.20
2021,06,26,02,23,21.20
2021,06,26,02,24,21.20
2021,06,26,02,25,21.20
2021,06,26,02,26,21.20
2021,06,26,02,27,21.20
2021,06,26,02,28,21.20
2021,06,26,02,29,21.20
2021,06,26,02,30,21.20
2021,06,26,02,31,21.20
2021,06,26,02,32,21.20
2021,06,26,02,33,21.10
2021,06,26,02,34,21.10
2021,06,26,02,35,21.10
2021,06,26,02,36,21.10
2021,06,26,02,37,21.10
2021,06,26,02,38,21.00
2021,06,26,02,39,21.00
2021,06,26,02,40,21.00
2021,06,26,02,41,21.00
2021,06,26,02,42,21.00
2021,06,26,02,43,21.00
2021,06,26,02,44,21.00
2021,06,26,02,45,20.90
2021,06,26,02,46,20.90
2021,06,26,02,47,20.90
2021,06,26,02,48,20.90
2021,06,26,02,49,20.80
2021,06,26,02,50,20.80
2021,06,26,02,51,20.80
2021,06,26,02,52,20.70
2021,06,26,02,53,20.70
2021,06,26,02,54,20.60
2021,06,26,02,55,20.60
2021,06,26,02,56,20.50
2021,06,26,02,57,20.50
2021,06,26,02,58,20.40
2021,06,26,02,59,20.40
2021,06,26,03,00,20.40
2021,06,26,03,01,20.30
2021,06,26,03,02,20.30
2021,06,26,03,03,20.30
2021,06,26,03,04,20.30
2021,06,26,03,05,20.20
2021,06,26,03,06,20.20
2021,06,26,03,07,20.20
2021,06,26,03,08,20.20
2021,06,26,03,09,20.20
2021,06,26,03,10,20.20
2021,06,26,03,11,20.20
2021,06,26,03,12,20.20
2021,06,26,03,13,20.20
2021,06,26,03,14,20.20
2021,06,26,03,15,20.20
2021,06,26,03,16,20.20
2021,06,26,03,17,20.20
2021,06,26,03,18,20.20
2021,06,26,03,19,20.20
2021,06,26,03,20,20.20
2021,06,26,03,21,20.30
2021,06,26,03,22,20.30
2021,06,26,03,23,20.40
2021,06,26,03,24,20.50
2021,06,26,03,25,20.50
2021,06,26,03,26,20.60
2021,06,26,03,27,20.60
2021,06,26,03,28,20.60
2021,06,26,03,29,20.60
2021,06,26,03,30,20.50
2021,06,26,03,31,20.50
2021,06,26,03,32,20.40
2021,06,26,03,33,20.30
2021,06,26,03,34,20.20
2021,06,26,03,35,20.20
2021,06,26,03,36,20.10
2021,06,26,03,37,20.00
2021,06,26,03,38,19.90
2021,06,26,03,39,19.90
2021,06,26,03,40,19.80
2021,06,26,03,41,19.80
2021,06,26,03,42,19.70
2021,06,26,03,43,19.70
2021,06,26,03,44,19.60
2021,06,26,03,45,19.60
2021,06,26,03,46,19.60
2021,06,26,03,47,19.60
2021,06,26,03,48,19.60
2021,06,26,03,49,19.60
2021,06,26,03,50,19.60
2021,06,26,03,51,19.70
2021,06,26,03,52,19.70
2021,06,26,03,53,19.70
2021,06,26,03,54,19.70
2021,06,26,03,55,19.80
2021,06,26,03,56,19.80
2021,06,26,03,57,19.80
2021,06,26,03,58,19.90
2021,06,26,03,59,19.90
2021,06,26,04,00,19.90
2021,06,26,04,01,19.90
2021,06,26,04,02,19.90
2021,06,26,04,03,19.90
2021,06,26,04,04,19.90
2021,06,26,04,05,19.90
2021,06,26,04,06,19.90
2021,06,26,04,07,19.90
2021,06,26,04,08,19.90
2021,06,26,04,09,19.90
2021,06,26,04,10,20.00
2021,06,26,04,11,20.10
2021,06,26,04,12,20.10
2021,06,26,04,13,20.10
2021,06,26,04,14,20.10
2021,06,26,04,15,20.10
2021,06,26,04,16,20.10
2021,06,26,04,17,20.10
2021,06,26,04,18,20.10
2021,06,26,04,19,20.20
2021,06,26,04,20,20.20
2021,06,26,04,21,20.20
2021,06,26,04,22,20.30
2021,06,26,04,23,20.40
2021,06,26,04,24,20.50
2021,06,26,04,25,20.60
2021,06,26,04,26,20.80
2021,06,26,04,27,21.00
2021,06,26,04,28,21.10
2021,06,26,04,29,21.30
2021,06,26,04,30,21.50
2021,06,26,04,31,21.60
2021,06,26,04,32,21.70
2021,06,26,04,33,21.80
2021,06,26,04,34,21.90
2021,06,26,04,35,22.00
2021,06,26,04,36,22.10
2021,06,26,04,37,22.10
2021,06,26,04,38,22.20
2021,06,26,04,39,22.30
2021,06,26,04,40,22.30
2021,06,26,04,41,22.30
2021,06,26,04,42,22.40
2021,06,26,04,43,22.40
2021,06,26,04,44,22.40
2021,06,26,04,45,22.40
2021,06,26,04,46,22.40
2021,06,26,04,47,22.40
2021,06,26,04,48,22.40
2021,06,26,04,49,22.40
2021,06,26,04,50,22.40
2021,06,26,04,51,22.40
2021,06,26,04,52,22.40
2021,06,26,04,53,22.40
2021,06,26,04,54,22.40
2021,06,26,04,55,22.40
2021,06,26,04,56,22.40
2021,06,26,04,57,22.40
2021,06,26,04,58,22.40
2021,06,26,04,59,22.40
2021,06,26,05,00,22.40
2021,06,26,05,01,22.40
2021,06,26,05,02,22.40
2021,06,26,05,03,22.40
2021,06,26,05,04,22.40
2021,06,26,05,05,22.40
2021,06,26,05,06,22.40
2021,06,26,05,07,22.40
2021,06,26,05,08,22.40
2021,06,26,05,09,22.40
2021,06,26,05,10,22.30
2021,06,26,05,11,22.30
2021,06,26,05,12,22.30
2021,06,26,05,13,22.20
2021,06,26,05,14,22.20
2021,06,26,05,15,22.10
2021,06,26,05,16,22.10
2021,06,26,05,17,22.00
2021,06,26,05,18,22.00
2021,06,26,05,19,21.90
2021,06,26,05,20,21.90
2021,06,26,05,21,21.80
2021,06,26,05,22,21.80
2021,06,26,05,23,21.80
2021,06,26,05,24,21.80
2021,06,26,05,25,21.80
2021,06,26,05,26,21.70
2021,06,26,05,27,21.70
2021,06,26,05,28,21.70
2021,06,26,05,29,21.70
2021,06,26,05,30,21.70
2021,06,26,05,31,21.70
2021,06,26,05,32,21.70
2021,06,26,05,33,21.70
2021,06,26,05,34,21.70
2021,06,26,05,35,21.70
2021,06,26,05,36,21.70
2021,06,26,05,37,21.70
2021,06,26,05,38,21.70
2021,06,26,05,39,21.70
2021,06,26,05,40,21.70
2021,06,26,05,41,21.60
2021,06,26,05,42,21.60
2021,06,26,05,43,21.60
2021,06,26,05,44,21.60
2021,06,26,05,45,21.60
2021,06,26,05,46,21.60
2021,06,26,05,47,21.60
2021,06,26,05,48,21.60
2021,06,26,05,49,21.60
2021,06,26,05,50,21.60
2021,06,26,05,51,21.60
2021,06,26,05,52,21.60
2021,06,26,05,53,21.70
2021,06,26,05,54,21.70
2021,06,26,05,55,21.70
2021,06,26,05,56,21.70
2021,06,26,05,57,21.70
2021,06,26,05,58,21.70
2021,06,26,05,59,21.80
2021,06,26,06,00,21.80
2021,06,26,06,01,21.80
2021,06,26,06,02,21.80
2021,06,26,06,03,21.80
2021,06,26,06,04,21.80
2021,06,26,06,05,21.80
2021,06,26,06,06,21.80
2021,06,26,06,07,21.70
2021,06,26,06,08,21.70
2021,06,26,06,09,21.70
2021,06,26,06,10,21.70
2021,06,26,06,11,21.70
2021,06,26,06,12,21.70
2021,06,26,06,13,21.60
2021,06,26,06,14,21.60
2021,06,26,06,15,21.60
2021,06,26,06,16,21.60
2021,06,26,06,17,21.60
2021,06,26,06,18,21.60
2021,06,26,06,19,21.60
2021,06,26,06,20,21.60
2021,06,26,06,21,21.60
2021,06,26,06,22,21.60
2021,06,26,06,23,21.60
2021,06,26,06,24,21.60
2021,06,26,06,25,21.60
2021,06,26,06,26,21.60
2021,06,26,06,27,21.70
2021,06,26,06,28,21.80
2021,06,26,06,29,21.80
2021,06,26,06,30,21.80
2021,06,26,06,31,21.90
2021,06,26,06,32,21.90
2021,06,26,06,33,22.00
2021,06,26,06,34,22.00
2021,06,26,06,35,22.00
2021,06,26,06,36,22.10
2021,06,26,06,37,22.10
2021,06,26,06,38,22.10
2021,06,26,06,39,22.10
2021,06,26,06,40,22.10
2021,06,26,06,41,22.20
2021,06,26,06,42,22.20
2021,06,26,06,43,22.20
2021,06,26,06,44,22.20
2021,06,26,06,45,22.20
2021,06,26,06,46,22.20
2021,06,26,06,47,22.20
2021,06,26,06,48,22.30
2021,06,26,06,49,22.30
2021,06,26,06,50,22.30
2021,06,26,06,51,22.40
2021,06,26,06,52,22.50
2021,06,26,06,53,22.50
2021,06,26,06,54,22.60
2021,06,26,06,55,22.60
2021,06,26,06,56,22.70
2021,06,26,06,57,22.70
2021,06,26,06,58,22.70
2021,06,26,06,59,22.80
2021,06,26,07,00,22.80
2021,06,26,07,01,22.80
2021,06,26,07,02,22.80
2021,06,26,07,03,22.80
2021,06,26,07,04,22.80
2021,06,26,07,05,22.80
2021,06,26,07,06,22.80
2021,06,26,07,07,22.80
2021,06,26,07,08,22.80
2021,06,26,07,09,22.80
2021,06,26,07,10,22.80
2021,06,26,07,11,22.80
2021,06,26,07,12,22.80
2021,06,26,07,13,22.80
2021,06,26,07,14,22.80
2021,06,26,07,15,22.90
2021,06,26,07,16,22.90
2021,06,26,07,17,22.90
2021,06,26,07,18,22.90
2021,06,26,07,19,22.90
2021,06,26,07,20,22.90
2021,06,26,07,21,22.90
2021,06,26,07,22,22.90
2021,06,26,07,23,23.00
2021,06,26,07,24,23.10
2021,06,26,07,25,23.10
2021,06,26,07,26,23.20
2021,06,26,07,27,23.20
2021,06,26,07,28,23.20
2021,06,26,07,29,23.30
2021,06,26,07,30,23.30
2021,06,26,07,31,23.30
2021,06,26,07,32,23.30
2021,06,26,07,33,23.50
2021,06,26,07,34,23.60
2021,06,26,07,35,23.70
2021,06,26,07,36,23.70
2021,06,26,07,37,23.70
2021,06,26,07,38,23.80
2021,06,26,07,39,24.00
2021,06,26,07,40,24.10
2021,06,26,07,41,24.10
2021,06,26,07,42,24.20
2021,06,26,07,43,24.30
2021,06,26,07,44,24.30
2021,06,26,07,45,24.40
2021,06,26,07,46,24.50
2021,06,26,07,47,24.50
2021,06,26,07,48,24.70
2021,06,26,07,49,24.80
2021,06,26,07,50,24.90
2021,06,26,07,51,24.90
2021,06,26,07,52,25.00
2021,06,26,07,53,25.00
2021,06,26,07,54,25.10
2021,06,26,07,55,25.10
2021,06,26,07,56,25.10
2021,06,26,07,57,25.10
2021,06,26,07,58,25.20
2021,06,26,07,59,25.20
2021,06,26,08,00,25.20
2021,06,26,08,01,25.20
2021,06,26,08,02,25.20
2021,06,26,08,03,25.20
2021,06,26,08,04,25.30
2021,06,26,08,05,25.30
2021,06,26,08,06,25.30
2021,06,26,08,07,25.40
2021,06,26,08,08,25.40
2021,06,26,08,09,25.40
2021,06,26,08,10,25.40
2021,06,26,08,11,25.50
2021,06,26,08,12,25.50
2021,06,26,08,13,25.50
2021,06,26,08,14,25.60
2021,06,26,08,15,25.60
2021,06,26,08,16,25.60
2021,06,26,08,17,25.60
2021,06,26,08,18,25.70
2021,06,26,08,19,25.70
2021,06,26,08,20,25.70
2021,06,26,08,21,25.80
2021,06,26,08,22,25.90
2021,06,26,08,23,25.90
2021,06,26,08,24,25.90
2021,06,26,08,25,25.90
2021,06,26,08,26,25.90
2021,06,26,08,27,26.00
2021,06,26,08,28,26.00
2021,06,26,08,29,26.10
2021,06,26,08,30,26.20
2021,06,26,08,31,26.30
2021,06,26,08,32,26.30
2021,06,26,08,33,26.40
2021,06,26,08,34,26.40
2021,06,26,08,35,26.40
2021,06,26,08,36,26.50
2021,06,26,08,37,26.60
2021,06,26,08,38,26.70
2021,06,26,08,39,26.70
2021,06,26,08,40,26.90
2021,06,26,08,41,27.00
2021,06,26,08,42,27.10
2021,06,26,08,43,27.20
2021,06,26,08,44,27.30
2021,06,26,08,45,27.30
2021,06,26,08,46,27.30
2021,06,26,08,47,27.50
2021,06,26,08,48,27.60
2021,06,26,08,49,27.60
2021,06,26,08,50,27.70
2021,06,26,08,51,27.80
2021,06,26,08,52,27.90
2021,06,26,08,53,27.90
2021,06,26,08,54,28.00
2021,06,26,08,55,28.10
2021,06,26,08,56,28.10
2021,06,26,08,57,28.20
2021,06,26,08,58,28.20
2021,06,26,08,59,28.20
2021,06,26,09,00,28.30
2021,06,26,09,01,28.30
2021,06,26,09,02,28.30
2021,06,26,09,03,28.30
2021,06,26,09,04,28.40
2021,06,26,09,05,28.40
2021,06,26,09,06,28.40
2021,06,26,09,07,28.50
2021,06,26,09,08,28.60
2021,06,26,09,09,28.60
2021,06,26,09,10,28.70
2021,06,26,09,11,28.70
2021,06,26,09,12,28.80
2021,06,26,09,13,28.80
2021,06,26,09,14,28.90
2021,06,26,09,15,28.90
2021,06,26,09,16,28.90
2021,06,26,09,17,28.80
2021,06,26,09,18,28.80
2021,06,26,09,19,28.80
2021,06,26,09,20,28.80
2021,06,26,09,21,28.80
2021,06,26,09,22,28.90
2021,06,26,09,23,28.90
2021,06,26,09,24,28.90
2021,06,26,09,25,29.00
2021,06,26,09,26,29.10
2021,06,26,09,27,29.10
2021,06,26,09,28,29.20
2021,06,26,09,29,29.20
2021,06,26,09,30,29.20
2021,06,26,09,31,29.30
2021,06,26,09,32,29.30
2021,06,26,09,33,29.30
2021,06,26,09,34,29.40
2021,06,26,09,35,29.40
2021,06,26,09,36,29.50
2021,06,26,09,37,29.50
2021,06,26,09,38,29.60
2021,06,26,09,39,29.70
2021,06,26,09,40,29.70
2021,06,26,09,41,29.70
2021,06,26,09,42,29.80
2021,06,26,09,43,29.80
2021,06,26,09,44,29.80
2021,06,26,09,45,29.70
2021,06,26,09,46,29.70
2021,06,26,09,47,29.70
2021,06,26,09,48,29.70
2021,06,26,09,49,29.70
2021,06,26,09,50,29.70
2021,06,26,09,51,29.80
2021,06,26,09,52,29.80
2021,06,26,09,53,29.80
2021,06,26,09,54,29.80
2021,06,26,09,55,29.80
2021,06,26,09,56,29.80
2021,06,26,09,57,29.90
2021,06,26,09,58,29.90
2021,06,26,09,59,29.80
2021,06,26,10,00,29.80
2021,06,26,10,01,29.90
2021,06,26,10,02,29.90
2021,06,26,10,03,29.90
2021,06,26,10,04,30.10
2021,06,26,10,05,30.10
2021,06,26,10,06,30.10
2021,06,26,10,07,30.10
2021,06,26,10,08,30.10
2021,06,26,10,09,30.10
2021,06,26,10,10,30.10
2021,06,26,10,11,30.20
2021,06,26,10,12,30.20
2021,06,26,10,13,30.30
2021,06,26,10,14,30.30
2021,06,26,10,15,30.40
2021,06,26,10,16,30.60
2021,06,26,10,17,30.70
2021,06,26,10,18,30.70
2021,06,26,10,19,30.80
2021,06,26,10,20,30.80
2021,06,26,10,21,30.90
2021,06,26,10,22,31.00
2021,06,26,10,23,31.00
2021,06,26,10,24,31.00
2021,06,26,10,25,31.00
2021,06,26,10,26,31.10
2021,06,26,10,27,31.00
2021,06,26,10,28,31.10
2021,06,26,10,29,31.10
2021,06,26,10,30,31.10
2021,06,26,10,31,31.20
2021,06,26,10,32,31.30
2021,06,26,10,33,31.30
2021,06,26,10,34,31.30
2021,06,26,10,35,31.20
2021,06,26,10,36,31.20
2021,06,26,10,37,31.10
2021,06,26,10,38,31.10
2021,06,26,10,39,31.20
2021,06,26,10,40,31.10
2021,06,26,10,41,31.20
2021,06,26,10,42,31.20
2021,06,26,10,43,31.20
2021,06,26,10,44,31.20
2021,06,26,10,45,31.20
2021,06,26,10,46,31.10
2021,06,26,10,47,31.20
2021,06,26,10,48,31.20
2021,06,26,10,49,31.20
2021,06,26,10,50,31.30
2021,06,26,10,51,31.30
2021,06,26,10,52,31.40
2021,06,26,10,53,31.40
2021,06,26,10,54,31.30
2021,06,26,10,55,31.30
2021,06,26,10,56,31.30
2021,06,26,10,57,31.30
2021,06,26,10,58,31.30
2021,06,26,10,59,31.30
2021,06,26,11,00,31.40
2021,06,26,11,01,31.40
2021,06,26,11,02,31.60
2021,06,26,11,03,31.60
2021,06,26,11,04,31.60
2021,06,26,11,05,31.60
2021,06,26,11,06,31.70
2021,06,26,11,07,31.70
2021,06,26,11,08,31.70
2021,06,26,11,09,31.70
2021,06,26,11,10,31.70
2021,06,26,11,11,31.70
2021,06,26,11,12,31.80
2021,06,26,11,13,31.80
2021,06,26,11,14,31.90
2021,06,26,11,15,31.90
2021,06,26,11,16,31.90
2021,06,26,11,17,31.90
2021,06,26,11,18,31.90
2021,06,26,11,19,31.90
2021,06,26,11,20,31.80
2021,06,26,11,21,31.80
2021,06,26,11,22,31.90
2021,06,26,11,23,32.00
2021,06,26,11,24,32.10
2021,06,26,11,25,32.20
2021,06,26,11,26,32.20
2021,06,26,11,27,32.20
2021,06,26,11,28,32.20
2021,06,26,11,29,32.20
2021,06,26,11,30,32.20
2021,06,26,11,31,32.20
2021,06,26,11,32,32.20
2021,06,26,11,33,32.20
2021,06,26,11,34,32.20
2021,06,26,11,35,32.10
2021,06,26,11,36,32.10
2021,06,26,11,37,32.10
2021,06,26,11,38,32.10
2021,06,26,11,39,32.10
2021,06,26,11,40,32.10
2021,06,26,11,41,32.10
2021,06,26,11,42,32.10
2021,06,26,11,43,32.10
2021,06,26,11,44,32.20
2021,06,26,11,45,32.20
2021,06,26,11,46,32.20
2021,06,26,11,47,32.20
2021,06,26,11,48,32.30
2021,06,26,11,49,32.40
2021,06,26,11,50,32.40
2021,06,26,11,51,32.40
2021,06,26,11,52,32.40
2021,06,26,11,53,32.40
2021,06,26,11,54,32.50
2021,06,26,11,55,32.40
2021,06,26,11,56,32.40
2021,06,26,11,57,32.40
2021,06,26,11,58,32.40
2021,06,26,11,59,32.50
2021,06,26,12,00,32.50
2021,06,26,12,01,32.50
2021,06,26,12,02,32.50
2021,06,26,12,03,32.50
2021,06,26,12,04,32.50
2021,06,26,12,05,32.50
2021,06,26,12,06,32.50
2021,06,26,12,07,32.50
2021,06,26,12,08,32.50
2021,06,26,12,09,32.40
2021,06,26,12,10,32.50
2021,06,26,12,11,32.50
2021,06,26,12,12,32.50
2021,06,26,12,13,32.60
2021,06,26,12,14,32.60
2021,06,26,12,15,32.80
2021,06,26,12,16,32.80
2021,06,26,12,17,32.80
2021,06,26,12,18,32.90
2021,06,26,12,19,32.90
2021,06,26,12,20,32.90
2021,06,26,12,21,32.90
2021,06,26,12,22,33.00
2021,06,26,12,23,33.00
2021,06,26,12,24,33.10
2021,06,26,12,25,33.00
2021,06,26,12,26,33.00
2021,06,26,12,27,33.00
2021,06,26,12,28,33.10
2021,06,26,12,29,33.10
2021,06,26,12,30,33.20
2021,06,26,12,31,33.20
2021,06,26,12,32,33.20
2021,06,26,12,33,33.20
2021,06,26,12,34,33.10
2021,06,26,12,35,33.10
2021,06,26,12,36,33.10
2021,06,26,12,37,33.20
2021,06,26,12,38,33.30
2021,06,26,12,39,33.40
2021,06,26,12,40,33.40
2021,06,26,12,41,33.40
2021,06,26,12,42,33.50
2021,06,26,12,43,33.50
2021,06,26,12,44,33.60
2021,06,26,12,45,33.60
2021,06,26,12,46,33.70
2021,06,26,12,47,33.70
2021,06,26,12,48,33.80
2021,06,26,12,49,33.90
2021,06,26,12,50,34.00
2021,06,26,12,51,34.00
2021,06,26,12,52,34.10
2021,06,26,12,53,34.10
2021,06,26,12,54,34.10
2021,06,26,12,55,34.00
2021,06,26,12,56,33.80
2021,06,26,12,57,33.70
2021,06,26,12,58,33.60
2021,06,26,12,59,33.50
2021,06,26,13,00,33.40
2021,06,26,13,01,33.40
2021,06,26,13,02,33.40
2021,06,26,13,03,33.20
2021,06,26,13,04,33.10
2021,06,26,13,05,33.10
2021,06,26,13,06,33.20
2021,06,26,13,07,33.30
2021,06,26,13,08,33.40
2021,06,26,13,09,33.40
2021,06,26,13,10,33.50
2021,06,26,13,11,33.50
2021,06,26,13,12,33.40
2021,06,26,13,13,33.40
2021,06,26,13,14,33.40
2021,06,26,13,15,33.40
2021,06,26,13,16,33.50
2021,06,26,13,17,33.60
2021,06,26,13,18,33.60
2021,06,26,13,19,33.70
2021,06,26,13,20,33.80
2021,06,26,13,21,34.00
2021,06,26,13,22,34.10
2021,06,26,13,23,34.20
2021,06,26,13,24,34.30
2021,06,26,13,25,34.40
2021,06,26,13,26,34.60
2021,06,26,13,27,34.60
2021,06,26,13,28,34.60
2021,06,26,13,29,34.60
2021,06,26,13,30,34.60
2021,06,26,13,31,34.60
2021,06,26,13,32,34.50
2021,06,26,13,33,34.40
2021,06,26,13,34,34.40
2021,06,26,13,35,34.30
2021,06,26,13,36,34.20
2021,06,26,13,37,34.20
2021,06,26,13,38,34.20
2021,06,26,13,39,34.30
2021,06,26,13,40,34.40
2021,06,26,13,41,34.40
2021,06,26,13,42,34.60
2021,06,26,13,43,34.40
2021,06,26,13,44,34.40
2021,06,26,13,45,34.40
2021,06,26,13,46,34.40
2021,06,26,13,47,34.40
2021,06,26,13,48,34.40
2021,06,26,13,49,34.40
2021,06,26,13,50,34.40
2021,06,26,13,51,34.40
2021,06,26,13,52,34.30
2021,06,26,13,53,34.30
2021,06,26,13,54,34.30
2021,06,26,13,55,34.30
2021,06,26,13,56,34.30
2021,06,26,13,57,34.40
2021,06,26,13,58,34.60
2021,06,26,13,59,34.60
2021,06,26,14,00,34.60
2021,06,26,14,01,34.70
2021,06,26,14,02,34.70
2021,06,26,14,03,34.70
2021,06,26,14,04,34.80
2021,06,26,14,05,34.80
2021,06,26,14,06,34.80
2021,06,26,14,07,34.80
2021,06,26,14,08,34.90
2021,06,26,14,09,34.90
2021,06,26,14,10,34.80
2021,06,26,14,11,34.70
2021,06,26,14,12,34.80
2021,06,26,14,13,34.70
2021,06,26,14,14,34.60
2021,06,26,14,15,34.50
2021,06,26,14,16,34.40
2021,06,26,14,17,34.40
2021,06,26,14,18,34.60
2021,06,26,14,19,34.70
2021,06,26,14,20,34.80
2021,06,26,14,21,34.80
2021,06,26,14,22,34.90
2021,06,26,14,23,34.90
2021,06,26,14,24,34.90
2021,06,26,14,25,34.90
2021,06,26,14,26,35.00
2021,06,26,14,27,35.10
2021,06,26,14,28,35.10
2021,06,26,14,29,35.10
2021,06,26,14,30,35.10
2021,06,26,14,31,35.10
2021,06,26,14,32,35.10
2021,06,26,14,33,35.20
2021,06,26,14,34,35.20
2021,06,26,14,35,35.20
2021,06,26,14,36,35.20
2021,06,26,14,37,35.20
2021,06,26,14,38,35.30
2021,06,26,14,39,35.40
2021,06,26,14,40,35.50
2021,06,26,14,41,35.50
2021,06,26,14,42,35.60
2021,06,26,14,43,35.50
2021,06,26,14,44,35.40
2021,06,26,14,45,35.30
2021,06,26,14,46,35.30
2021,06,26,14,47,35.30
2021,06,26,14,48,35.40
2021,06,26,14,49,35.50
2021,06,26,14,50,35.30
2021,06,26,14,51,35.30
2021,06,26,14,52,35.20
2021,06,26,14,53,35.10
2021,06,26,14,54,35.10
2021,06,26,14,55,35.10
2021,06,26,14,56,35.00
2021,06,26,14,57,34.90
2021,06,26,14,58,34.90
2021,06,26,14,59,35.00
2021,06,26,15,00,35.10
2021,06,26,15,01,35.20
2021,06,26,15,02,35.20
2021,06,26,15,03,35.20
2021,06,26,15,04,35.20
2021,06,26,15,05,35.30
2021,06,26,15,06,35.30
2021,06,26,15,07,35.20
2021,06,26,15,08,35.20
2021,06,26,15,09,35.30
2021,06,26,15,10,35.30
2021,06,26,15,11,35.30
2021,06,26,15,12,35.40
2021,06,26,15,13,35.50
2021,06,26,15,14,35.60
2021,06,26,15,15,35.60
2021,06,26,15,16,35.60
2021,06,26,15,17,35.60
2021,06,26,15,18,35.60
2021,06,26,15,19,35.60
2021,06,26,15,20,35.70
2021,06,26,15,21,35.70
2021,06,26,15,22,35.70
2021,06,26,15,23,35.90
2021,06,26,15,24,35.90
2021,06,26,15,25,35.90
2021,06,26,15,26,35.90
2021,06,26,15,27,35.90
2021,06,26,15,28,35.70
2021,06,26,15,29,35.60
2021,06,26,15,30,35.50
2021,06,26,15,31,35.50
2021,06,26,15,32,35.50
2021,06,26,15,33,35.50
2021,06,26,15,34,35.60
2021,06,26,15,35,35.60
2021,06,26,15,36,35.60
2021,06,26,15,37,35.60
2021,06,26,15,38,35.50
2021,06,26,15,39,35.50
2021,06,26,15,40,35.50
2021,06,26,15,41,35.50
2021,06,26,15,42,35.50
2021,06,26,15,43,35.50
2021,06,26,15,44,35.50
2021,06,26,15,45,35.50
2021,06,26,15,46,35.50
2021,06,26,15,47,35.50
2021,06,26,15,48,35.30
2021,06,26,15,49,35.30
2021,06,26,15,50,35.30
2021,06,26,15,51,35.30
2021,06,26,15,52,35.30
2021,06,26,15,53,35.30
2021,06,26,15,54,35.30
2021,06,26,15,55,35.20
2021,06,26,15,56,35.20
2021,06,26,15,57,35.20
2021,06,26,15,58,35.10
2021,06,26,15,59,35.10
2021,06,26,16,00,35.00
2021,06,26,16,01,34.90
2021,06,26,16,02,34.90
2021,06,26,16,04,34.80
2021,06,26,16,05,34.80
2021,06,26,16,06,34.80
2021,06,26,16,07,34.80
2021,06,26,16,08,34.80
2021,06,26,16,09,34.70
2021,06,26,16,10,34.70
2021,06,26,16,11,34.70
2021,06,26,16,12,34.70
2021,06,26,16,13,34.60
2021,06,26,16,14,34.60
2021,06,26,16,15,34.40
2021,06,26,16,16,34.40
2021,06,26,16,17,34.30
2021,06,26,16,18,34.30
2021,06,26,16,19,34.30
2021,06,26,16,20,34.30
2021,06,26,16,21,34.20
2021,06,26,16,22,34.20
2021,06,26,16,23,34.20
2021,06,26,16,24,34.20
2021,06,26,16,25,34.10
2021,06,26,16,26,34.10
2021,06,26,16,27,34.10
2021,06,26,16,28,34.10
2021,06,26,16,29,34.10
2021,06,26,16,30,34.10
2021,06,26,16,31,34.10
2021,06,26,16,32,34.10
2021,06,26,16,33,34.10
2021,06,26,16,34,34.10
2021,06,26,16,35,34.00
2021,06,26,16,36,34.00
2021,06,26,16,37,34.00
2021,06,26,16,38,34.00
2021,06,26,16,39,34.00
2021,06,26,16,40,34.00
2021,06,26,16,41,33.90
2021,06,26,16,42,33.80
2021,06,26,16,43,33.80
2021,06,26,16,44,33.80
2021,06,26,16,45,33.80
2021,06,26,16,46,33.70
2021,06,26,16,47,33.70
2021,06,26,16,48,33.70
2021,06,26,16,49,33.70
2021,06,26,16,50,33.70
2021,06,26,16,51,33.70
2021,06,26,16,52,33.70
2021,06,26,16,53,33.70
2021,06,26,16,54,33.70
2021,06,26,16,55,33.70
2021,06,26,16,56,33.70
2021,06,26,16,57,33.70
2021,06,26,16,58,33.70
2021,06,26,16,59,33.70
2021,06,26,17,00,33.70
2021,06,26,17,01,33.70
2021,06,26,17,02,33.70
2021,06,26,17,03,33.70
2021,06,26,17,04,33.70
2021,06,26,17,05,33.70
2021,06,26,17,06,33.70
2021,06,26,17,07,33.60
2021,06,26,17,08,33.60
2021,06,26,17,09,33.60
2021,06,26,17,10,33.60
2021,06,26,17,11,33.60
2021,06,26,17,12,33.60
2021,06,26,17,13,33.60
2021,06,26,17,14,33.60
2021,06,26,17,15,33.60
2021,06,26,17,16,33.50
2021,06,26,17,17,33.50
2021,06,26,17,18,33.50
2021,06,26,17,19,33.50
2021,06,26,17,20,33.50